[[{"header":{"parameterUnit":"m.s-1","parameterCategory":1,"la1":30.2991,"la2":30.254,"lo1":-89.0895,"lo2":-89.0444,"dy":0.0017,"dx":0.0017,"nx":28,"ny":28,"refTime":"2024-05-02T09:00:00:Z","depth":0,"parameterNumber":2,"parameterNumberName":"U-component_of_WINDS"},"data":[0,0,0,0,0,0,0,0,0,0,0,0,0,0,0,0,0,0,0,0,0,0,0,0,0,0,0,0,0,0,0,0,0,0,0,0,0,0,0,0,0,0,0,0,0,0,0,0,0,0,0,0,0,0,0,0,0,0,-2.7672,-2.7673,0,-2.7718,-2.7718,-2.7719,-2.7711,-2.7711,-2.771,-2.7709,-2.7755,-2.7757,-2.7759,0,0,0,0,0,0,0,0,0,0,0,0,0,-2.7579,-2.7581,-2.7672,-2.7673,-2.7673,-2.7718,-2.7718,-2.7719,-2.7711,-2.771,-2.771,-2.7709,-2.7755,-2.7757,-2.7759,0,0,0,0,0,0,0,0,0,0,0,0,0,-2.7622,-2.7581,-2.7672,-2.7675,-2.7676,-2.7718,-2.7718,-2.7719,-2.7712,-2.771,-2.7709,-2.7708,-2.7754,-2.7757,-2.776,-2.7802,0,0,-2.7769,-2.777,0,0,0,0,0,0,0,0,-2.7619,-2.7625,-2.7674,-2.7675,-2.7676,-2.7708,-2.7702,-2.7747,-2.7712,-2.7698,-2.7709,-2.7708,-2.774,-2.7744,-2.7756,-2.7804,-2.7806,-2.7769,-2.7771,-2.7772,-2.7773,0,0,0,0,0,0,0,-2.7616,-2.7623,-2.769,-2.7675,-2.7676,-2.7674,-2.7679,-2.7711,-2.7725,-2.7699,-2.7699,-2.7704,-2.7741,-2.7753,-2.7757,-2.7806,-2.7769,-2.7772,-2.7773,-2.7775,-2.7891,-2.7892,0,0,0,0,0,0,-2.7612,-2.7621,-2.7689,-2.7692,-2.7644,-2.7677,-2.7682,-2.7699,-2.7725,-2.7728,-2.7705,-2.7704,-2.7748,-2.7753,-2.7758,-2.7808,-2.7772,-2.7775,-2.7777,-2.789,-2.7891,-2.7893,0,0,0,0,0,0,-2.761,-2.7619,-2.7687,-2.7656,-2.7665,-2.768,-2.7698,-2.77,-2.7712,-2.7729,-2.7732,-2.7715,-2.7748,-2.7754,-2.7791,-2.781,-2.7776,-2.7779,-2.7888,-2.789,-2.7892,-2.7909,0,0,0,0,0,0,-2.7608,-2.7618,-2.7634,-2.7656,-2.7666,-2.7719,-2.7699,-2.7702,-2.7717,-2.7716,-2.7739,-2.7742,-2.7747,-2.7786,-2.7794,-2.7813,-2.7781,-2.7886,-2.7889,-2.7891,-2.7907,-2.7911,-2.7915,0,0,0,0,0,-2.7605,-2.7637,-2.7635,-2.7643,-2.7687,-2.772,-2.7725,-2.7731,-2.7719,-2.7735,-2.7746,-2.7741,-2.7807,-2.779,-2.7798,-2.7819,-2.7885,-2.7888,-2.7891,-2.7905,-2.791,-2.7915,0,0,0,0,0,0,-2.7616,-2.764,-2.7638,-2.7678,-2.7697,-2.7719,-2.7739,-2.7737,-2.7759,-2.7757,-2.7763,-2.7768,-2.7805,-2.7816,-2.7797,-2.7861,-2.7844,-2.7849,-2.7852,-2.7857,-2.7862,-2.7857,-2.7784,0,0,0,0,0,-2.7623,-2.7648,-2.7668,-2.7702,-2.7712,-2.7724,-2.7739,-2.7741,-2.7761,-2.7769,-2.7783,-2.7802,-2.7827,-2.7843,-2.7867,-2.7909,-2.7914,-2.7927,-2.7932,-2.7935,-2.7938,-2.7961,-2.7967,-2.7903,-2.7903,-2.7902,0,0,-2.7639,-2.7655,-2.767,-2.7705,-2.772,-2.7745,-2.773,-2.7758,-2.7777,-2.7773,-2.7808,-2.7819,-2.7841,-2.7881,-2.7899,-2.7891,-2.7958,-2.7939,-2.7941,-2.7943,-2.7965,-2.7971,-2.7976,-2.7905,-2.7904,-2.7904,0,0,-2.7679,-2.7694,-2.7724,-2.7739,-2.7762,-2.777,-2.7777,-2.7799,-2.7806,-2.7842,-2.7839,-2.7862,-2.7905,-2.7921,-2.7934,-2.7981,-2.7977,-2.7989,-2.8011,-2.8033,-2.8038,-2.8042,-2.8058,-2.8064,-2.7993,-2.7993,-2.7993,0,-2.7695,-2.7733,-2.7739,-2.7768,-2.7783,-2.778,-2.781,-2.7825,-2.7854,-2.7865,-2.7856,-2.791,-2.7925,-2.7967,-2.7979,-2.799,-2.7998,-2.7986,-2.8036,-2.8041,-2.8045,-2.806,-2.8067,-2.7994,-2.7994,-2.7994,-2.7994,0,-2.7752,-2.7778,-2.78,-2.7828,-2.7846,-2.7875,-2.7885,-2.7902,-2.7904,-2.7913,-2.7949,-2.7967,-2.7994,-2.8005,-2.8007,-2.8048,-2.8042,-2.8035,-2.8018,-2.8053,-2.8067,-2.8073,-2.7996,-2.7996,-2.7995,-2.7995,0,0,-2.7799,-2.7831,-2.7838,-2.7851,-2.7876,-2.7897,-2.7926,-2.7953,-2.7967,-2.7988,-2.8012,-2.8049,-2.8043,-2.8058,-2.8062,-2.8081,-2.8117,-2.8072,-2.8072,-2.8078,-2.8162,-2.8167,-2.8173,-2.8115,-2.8116,-2.8117,-2.816,0,-2.7841,-2.7892,-2.7898,-2.7943,-2.7968,-2.7967,-2.7992,-2.801,-2.802,-2.8042,-2.8053,-2.8078,-2.8068,-2.8077,-2.8097,-2.8108,-2.8133,-2.8105,-2.8137,-2.8138,-2.813,-2.8181,-2.8186,-2.8225,-2.8166,-2.8167,-2.8168,0,-2.7897,-2.7919,-2.7966,-2.7988,-2.7998,-2.8021,-2.8046,-2.8067,-2.8088,-2.8094,-2.8111,-2.8113,-2.8143,-2.8126,-2.8167,-2.8148,-2.8162,-2.8169,-2.8171,-2.8173,-2.8154,-2.8183,-2.8238,-2.8244,-2.8177,-2.8176,-2.8175,0,-2.7925,-2.7967,-2.8001,-2.8012,-2.8038,-2.8054,-2.8066,-2.8085,-2.8101,-2.8123,-2.8133,-2.8159,-2.8173,-2.8193,-2.8201,-2.8188,-2.8241,-2.8225,-2.8246,-2.8246,-2.8256,-2.8255,-2.8313,-2.8267,-2.8267,-2.8267,-2.8267,0,-2.7971,-2.7999,-2.8014,-2.8034,-2.8066,-2.8074,-2.8106,-2.8117,-2.8135,-2.8157,-2.8158,-2.818,-2.819,-2.8213,-2.822,-2.8252,-2.8259,-2.8264,-2.8265,-2.8263,-2.8262,-2.8271,-2.8268,-2.8269,-2.8268,-2.8268,-2.8268,0,-2.8007,-2.8018,-2.8055,-2.8077,-2.8083,-2.8106,-2.8125,-2.8145,-2.8154,-2.8183,-2.819,-2.8205,-2.8233,-2.8243,-2.8276,-2.8281,-2.8318,-2.8318,-2.8311,-2.8311,-2.8331,-2.8328,-2.8395,-2.8404,-2.8353,-2.8354,-2.8354,0,-2.8035,-2.8057,-2.8081,-2.8097,-2.8109,-2.8133,-2.8149,-2.8158,-2.8175,-2.82,-2.8217,-2.8244,-2.8266,-2.8309,-2.8323,-2.8349,-2.8348,-2.837,-2.8352,-2.8349,-2.8347,-2.8345,-2.8347,-2.8373,-2.8373,-2.8374,-2.8374,0,-2.8082,-2.8086,-2.8109,-2.8134,-2.8153,-2.8173,-2.8193,-2.8205,-2.8217,-2.8236,-2.8263,-2.828,-2.8314,-2.8341,-2.8367,-2.838,-2.8379,-2.838,-2.8386,-2.8383,-2.8378,-2.838,-2.8319,-2.8378,-2.8378,-2.8377,-2.8377,-2.8377,-2.8114,-2.8134,-2.8154,-2.8179,-2.8195,-2.8213,-2.8233,-2.8245,-2.8268,-2.8296,-2.83,-2.8329,-2.835,-2.8385,-2.8399,-2.8422,-2.8416,-2.8425,-2.8427,-2.8429,-2.843,-2.8375,-2.8427,-2.8427,-2.8427,-2.8427,-2.8427,0,-2.8161,-2.8174,-2.8197,-2.8224,-2.8244,-2.8242,-2.8264,-2.8281,-2.8306,-2.8326,-2.8347,-2.8379,-2.8405,-2.8421,-2.8447,-2.8463,-2.8463,-2.8469,-2.8468,-2.847,-2.8434,-2.8425,-2.8469,-2.8469,-2.8469,-2.8469,-2.8469,-2.8469,-2.8187,-2.8219,-2.8226,-2.8266,-2.8279,-2.8308,-2.832,-2.8337,-2.8352,-2.8387,-2.8409,-2.8419,-2.8438,-2.8465,-2.8489,-2.8493,-2.8502,-2.8509,-2.8512,-2.8477,-2.8473,-2.8469,-2.8461,-2.8511,-2.8511,-2.8547,-2.8547,-2.8547]},{"header":{"parameterUnit":"m.s-1","parameterCategory":1,"la1":30.2991,"la2":30.254,"lo1":-89.0895,"lo2":-89.0444,"dy":0.0017,"dx":0.0017,"nx":28,"ny":28,"refTime":"2024-05-02T09:00:00:Z","depth":0,"parameterNumber":3,"parameterNumberName":"V-component_of_WINDS"},"data":[0,0,0,0,0,0,0,0,0,0,0,0,0,0,0,0,0,0,0,0,0,0,0,0,0,0,0,0,0,0,0,0,0,0,0,0,0,0,0,0,0,0,0,0,0,0,0,0,0,0,0,0,0,0,0,0,0,0,3.3768,3.3768,0,3.3818,3.3818,3.3819,3.3811,3.3811,3.381,3.3809,3.3856,3.3858,3.386,0,0,0,0,0,0,0,0,0,0,0,0,0,3.3661,3.3663,3.3768,3.3768,3.3769,3.3818,3.3819,3.3819,3.3812,3.3811,3.381,3.3809,3.3855,3.3858,3.386,0,0,0,0,0,0,0,0,0,0,0,0,0,3.3709,3.3664,3.3767,3.3771,3.3772,3.3818,3.3819,3.3819,3.3812,3.3811,3.3809,3.3808,3.3854,3.3857,3.386,3.3904,0,0,3.387,3.3871,0,0,0,0,0,0,0,0,3.3706,3.3713,3.377,3.3771,3.3772,3.3807,3.3798,3.3848,3.3812,3.3797,3.3809,3.3808,3.384,3.3844,3.3857,3.3906,3.3908,3.387,3.3872,3.3873,3.3874,0,0,0,0,0,0,0,3.3703,3.371,3.3787,3.3771,3.3772,3.3769,3.3774,3.3807,3.3825,3.3798,3.3797,3.3804,3.3841,3.3854,3.3858,3.3909,3.387,3.3872,3.3874,3.3876,3.3998,3.3999,0,0,0,0,0,0,3.3699,3.3708,3.3786,3.3789,3.3735,3.3772,3.3778,3.3797,3.3824,3.3827,3.3805,3.3803,3.3849,3.3854,3.3859,3.3912,3.3873,3.3876,3.3878,3.3996,3.3998,3.3999,0,0,0,0,0,0,3.3697,3.3706,3.3784,3.3748,3.3758,3.3775,3.3797,3.3799,3.3812,3.383,3.3832,3.3815,3.3848,3.3855,3.3893,3.3914,3.3877,3.388,3.3994,3.3997,3.3999,3.4019,0,0,0,0,0,0,3.3694,3.3705,3.3723,3.3749,3.376,3.3818,3.3798,3.3801,3.3818,3.3816,3.384,3.3843,3.3848,3.3889,3.3896,3.3917,3.3882,3.3993,3.3995,3.3998,3.4017,3.4022,3.4026,0,0,0,0,0,3.369,3.3726,3.3724,3.3733,3.3783,3.382,3.3826,3.3832,3.3819,3.3837,3.3848,3.3842,3.3911,3.3893,3.3901,3.3923,3.3991,3.3995,3.3998,3.4015,3.4021,3.4026,0,0,0,0,0,0,3.37,3.3729,3.3728,3.3773,3.3794,3.3818,3.384,3.3838,3.3862,3.386,3.3865,3.387,3.391,3.392,3.39,3.3967,3.3949,3.3954,3.3959,3.3965,3.397,3.3966,3.3885,0,0,0,0,0,3.3708,3.3737,3.376,3.3798,3.3809,3.3823,3.3839,3.3843,3.3864,3.3872,3.3887,3.3906,3.3932,3.3949,3.3974,3.4019,3.4023,3.4038,3.4043,3.4046,3.405,3.4074,3.4081,3.401,3.401,3.401,0,0,3.3723,3.3743,3.3761,3.38,3.3817,3.3846,3.383,3.3861,3.3882,3.3876,3.3914,3.3925,3.3948,3.399,3.4009,3.4,3.4071,3.405,3.4053,3.4055,3.4078,3.4085,3.4091,3.4012,3.4012,3.4011,0,0,3.3767,3.3785,3.3819,3.3836,3.3863,3.3872,3.388,3.3905,3.3913,3.3951,3.3948,3.3972,3.4017,3.4033,3.4047,3.4098,3.4093,3.4106,3.413,3.4153,3.4159,3.4164,3.4182,3.4188,3.411,3.411,3.411,0,3.3782,3.3827,3.3836,3.3868,3.3885,3.3883,3.3917,3.3933,3.3965,3.3976,3.3967,3.4023,3.4038,3.4084,3.4097,3.4108,3.4117,3.4103,3.4158,3.4163,3.4168,3.4185,3.4191,3.4112,3.4111,3.4111,3.4111,0,3.3845,3.3876,3.39,3.3934,3.3953,3.3986,3.3998,3.4017,3.4019,3.4029,3.4068,3.4086,3.4115,3.4126,3.4127,3.4172,3.4165,3.4157,3.4138,3.4176,3.4192,3.4198,3.4114,3.4113,3.4113,3.4112,0,0,3.3895,3.3934,3.3943,3.3958,3.3987,3.4011,3.4043,3.4073,3.4089,3.4111,3.4138,3.4177,3.4169,3.4185,3.4188,3.4209,3.4248,3.4198,3.4198,3.4206,3.4298,3.4304,3.4311,3.4245,3.4247,3.4248,3.4296,0,3.3941,3.4,3.4009,3.406,3.4088,3.4087,3.4115,3.4136,3.4146,3.4171,3.4181,3.4209,3.4197,3.4207,3.4227,3.4239,3.4266,3.4236,3.4269,3.427,3.4263,3.432,3.4326,3.4371,3.4302,3.4303,3.4304,0,3.4002,3.4029,3.4083,3.411,3.4122,3.4147,3.4175,3.4199,3.4222,3.4228,3.4247,3.4248,3.428,3.4261,3.4305,3.4284,3.4298,3.4306,3.4308,3.431,3.4289,3.4323,3.4385,3.4392,3.4314,3.4313,3.4312,0,3.4033,3.4082,3.4121,3.4134,3.4166,3.4183,3.4197,3.4219,3.4237,3.4261,3.4272,3.43,3.4314,3.4335,3.4343,3.4328,3.4386,3.4368,3.4391,3.4391,3.4403,3.4402,3.4467,3.4413,3.4413,3.4412,3.4412,0,3.4083,3.4116,3.4135,3.4159,3.4196,3.4206,3.4242,3.4254,3.4274,3.43,3.43,3.4324,3.4333,3.4358,3.4364,3.44,3.4406,3.4411,3.4412,3.4411,3.441,3.442,3.4416,3.4414,3.4414,3.4414,3.4413,0,3.4123,3.4137,3.418,3.4207,3.4215,3.4241,3.4263,3.4286,3.4297,3.4329,3.4337,3.4353,3.4383,3.4393,3.4428,3.4432,3.4473,3.4472,3.4466,3.4466,3.4489,3.4486,3.4562,3.4572,3.4512,3.4512,3.4513,0,3.4154,3.418,3.421,3.4229,3.4244,3.4272,3.4291,3.4301,3.432,3.4349,3.4368,3.4398,3.4422,3.4468,3.4482,3.4509,3.4508,3.4533,3.4512,3.451,3.4508,3.4507,3.4509,3.4536,3.4537,3.4538,3.4538,0,3.4207,3.4213,3.4241,3.4271,3.4294,3.4318,3.4341,3.4355,3.4369,3.439,3.4421,3.444,3.4477,3.4506,3.4534,3.4546,3.4544,3.4545,3.4552,3.455,3.4545,3.4548,3.4476,3.4543,3.4542,3.4542,3.4542,3.4541,3.4243,3.4266,3.4292,3.4323,3.4342,3.4364,3.4386,3.4401,3.4427,3.4459,3.4464,3.4497,3.4519,3.4556,3.457,3.4596,3.4589,3.4599,3.4601,3.4603,3.4605,3.4542,3.4601,3.4601,3.46,3.46,3.46,0,3.4296,3.4313,3.4341,3.4375,3.4399,3.4397,3.4423,3.4442,3.4472,3.4494,3.4518,3.4554,3.4582,3.4599,3.4628,3.4645,3.4644,3.4652,3.465,3.4653,3.4609,3.4601,3.4651,3.4651,3.4651,3.4651,3.4651,3.4651,3.4327,3.4366,3.4375,3.4423,3.4439,3.4473,3.4488,3.4508,3.4526,3.4566,3.459,3.4602,3.4622,3.4651,3.4677,3.4681,3.4691,3.4699,3.4703,3.4661,3.4656,3.4651,3.4643,3.4702,3.4702,3.4744,3.4745,3.4745]}]]